Weather History for Darlington, SC

Change the Weather History Date:

Wednesday, July 31, 2013

  Actual Average (KFLO) Record (KFLO)
Temperature  
Mean Temperature 78 °F 81 °F  
Max Temperature 86 °F 91 °F 103 °F (1999)
Min Temperature 71 °F 72 °F 62 °F (1997)
Degree Days  
Heating Degree Days 0 0  
Month to date heating degree days 0  
Since 1 June heating degree days 1  
Since 1 July heating degree days 0  
Cooling Degree Days 14 16  
Month to date cooling degree days 502  
Year to date cooling degree days 1206  
Since 1 June cooling degree days 899  
Growing Degree Days 28 (Base 50)    
Moisture  
Dew Point 70 °F    
Average Humidity 78    
Maximum Humidity 88    
Minimum Humidity 55    
Precipitation  
Precipitation 0.04 in 0.18 in 1.19 in (1949)
Month to date precipitation 5.26  
Year to date precipitation 25.24  
Sea Level Pressure  
Sea Level Pressure 30.11 in    
Wind  
Wind Speed 3 mph (SSE)    
Max Wind Speed 12 mph    
Max Gust Speed 20 mph    
Visibility 10 miles    
Events      
T = Trace of Precipitation, MM = Missing Value Source: NWS Daily Summary

Daily Weather History Graph

Daily Weather History Graph

Search for Another Location

Airport:

Trip Planner

Search our weather history database for the weather conditions in past years. The results will help you decide how hot, cold, wet, or windy it might be!

Date:

Astronomy

Jul. 31, 2013 Rise Set
Actual Time 6:29 AM EDT 8:21 PM EDT
Civil Twilight 6:01 AM EDT 8:49 PM EDT
Nautical Twilight 5:28 AM EDT 9:22 PM EDT
Astronomical Twilight 4:52 AM EDT 9:58 PM EDT
Moon 1:23 AM EDT (7/31) 3:35 PM EDT (7/31)
Length of Visible Light 14h 47m
Length of Day
13h 52m
Waning Crescent, 32% of the Moon is Illuminated
Jul 31
Waning Crescent
Aug 6
New
Aug 14
First Quarter
Aug 20
Full
Aug 28
Last Quarter

Hourly Weather History & Observations

Time (EDT) Temp. Heat Index Dew Point Humidity Pressure Visibility Wind Dir Wind Speed Gust Speed Precip Events Conditions
12:15 AM 73.4 °F - 69.8 °F 88% 30.17 in 10.0 mi Calm Calm - N/A   Clear
12:35 AM 73.4 °F - 69.8 °F 88% 30.17 in 10.0 mi Calm Calm - N/A   Clear
12:55 AM 73.4 °F - 69.8 °F 88% 30.16 in 10.0 mi Calm Calm - N/A   Clear
1:15 AM 73.4 °F - 69.8 °F 88% 30.16 in 10.0 mi Calm Calm - N/A   Clear
1:35 AM 73.4 °F - 69.8 °F 88% 30.15 in 10.0 mi Calm Calm - N/A   Clear
1:55 AM 73.4 °F - 68.0 °F 83% 30.15 in 10.0 mi Calm Calm - N/A   Clear
2:15 AM 73.4 °F - 68.0 °F 83% 30.14 in 10.0 mi Calm Calm - N/A   Clear
2:55 AM 73.4 °F - 69.8 °F 88% 30.14 in 8.0 mi Calm Calm - N/A   Clear
3:15 AM 73.4 °F - 68.0 °F 83% 30.14 in 7.0 mi SSW 3.5 mph - N/A   Clear
3:35 AM 71.6 °F - 68.0 °F 88% 30.13 in 7.0 mi Calm Calm - N/A   Clear
3:55 AM 73.4 °F - 68.0 °F 83% 30.13 in 5.0 mi Calm Calm - N/A   Clear
4:15 AM 71.6 °F - 68.0 °F 88% 30.13 in 7.0 mi Calm Calm - N/A   Clear
4:35 AM 73.4 °F - 68.0 °F 83% 30.13 in 9.0 mi NNW 3.5 mph - N/A   Clear
4:55 AM 73.4 °F - 66.2 °F 78% 30.13 in 9.0 mi Calm Calm - N/A   Clear
5:15 AM 71.6 °F - 66.2 °F 83% 30.13 in 10.0 mi Calm Calm - N/A   Clear
5:35 AM 71.6 °F - 66.2 °F 83% 30.14 in 8.0 mi Calm Calm - N/A   Clear
5:55 AM 71.6 °F - 66.2 °F 83% 30.14 in 10.0 mi Calm Calm - N/A   Clear
6:15 AM 71.6 °F - 66.2 °F 83% 30.14 in 10.0 mi Calm Calm - N/A   Clear
6:35 AM 73.4 °F - 68.0 °F 83% 30.14 in 8.0 mi Calm Calm - N/A   Clear
6:55 AM 71.6 °F - 66.2 °F 83% 30.13 in 8.0 mi ENE 3.5 mph - N/A   Clear
7:15 AM 73.4 °F - 66.2 °F 78% 30.14 in 8.0 mi Calm Calm - N/A   Clear
7:35 AM 73.4 °F - 68.0 °F 83% 30.14 in 8.0 mi Calm Calm - N/A   Clear
7:55 AM 73.4 °F - 68.0 °F 83% 30.15 in 10.0 mi Calm Calm - N/A   Clear
8:15 AM 73.4 °F - 69.8 °F 88% 30.16 in 9.0 mi West 3.5 mph - N/A   Clear
8:35 AM 73.4 °F - 68.0 °F 83% 30.16 in 10.0 mi Calm Calm - N/A   Clear
8:55 AM 75.2 °F - 69.8 °F 83% 30.17 in 10.0 mi Calm Calm - N/A   Clear
9:15 AM 75.2 °F - 69.8 °F 83% 30.18 in 10.0 mi West 3.5 mph - N/A   Clear
9:35 AM 78.8 °F - 71.6 °F 78% 30.17 in 10.0 mi Calm Calm - N/A   Clear
9:55 AM 78.8 °F - 71.6 °F 78% 30.16 in 10.0 mi Calm Calm - N/A   Clear
10:15 AM 80.6 °F 84.6 °F 71.6 °F 74% 30.16 in 10.0 mi Calm Calm - N/A   Clear
10:35 AM 80.6 °F 84.6 °F 71.6 °F 74% 30.16 in 10.0 mi East 3.5 mph - N/A   Clear
10:55 AM 80.6 °F 84.6 °F 71.6 °F 74% 30.16 in 10.0 mi SE 3.5 mph - N/A   Clear
11:15 AM 82.4 °F 87.2 °F 71.6 °F 70% 30.16 in 10.0 mi SSE 4.6 mph - N/A   Clear
11:35 AM 82.4 °F 87.2 °F 71.6 °F 70% 30.15 in 10.0 mi ESE 3.5 mph - N/A   Clear
11:55 AM 82.4 °F 87.2 °F 71.6 °F 70% 30.14 in 10.0 mi ESE 4.6 mph - N/A   Clear
12:15 PM 82.4 °F 87.2 °F 71.6 °F 70% 30.13 in 10.0 mi ESE 6.9 mph - N/A   Clear
12:35 PM 82.4 °F 87.2 °F 71.6 °F 70% 30.13 in 10.0 mi SE 5.8 mph - N/A   Clear
12:55 PM 82.4 °F 87.2 °F 71.6 °F 70% 30.13 in 10.0 mi SE 5.8 mph - N/A   Clear
1:15 PM 84.2 °F 90.9 °F 73.4 °F 70% 30.13 in 10.0 mi East 4.6 mph - N/A   Clear
1:35 PM 84.2 °F 90.9 °F 73.4 °F 70% 30.12 in 10.0 mi SE 5.8 mph - N/A   Clear
1:55 PM 84.2 °F 89.6 °F 71.6 °F 66% 30.11 in 10.0 mi SSE 6.9 mph - N/A   Partly Cloudy
2:15 PM 84.2 °F 89.6 °F 71.6 °F 66% 30.10 in 10.0 mi SE 4.6 mph - N/A   Mostly Cloudy
2:35 PM 86.0 °F 91.8 °F 71.6 °F 62% 30.10 in 10.0 mi SE 6.9 mph - N/A   Mostly Cloudy
2:55 PM 84.2 °F 89.6 °F 71.6 °F 66% 30.09 in 10.0 mi SE 5.8 mph - N/A   Mostly Cloudy
3:15 PM 84.2 °F 89.6 °F 71.6 °F 66% 30.08 in 10.0 mi SE 6.9 mph - N/A   Mostly Cloudy
3:35 PM 86.0 °F 91.8 °F 71.6 °F 62% 30.07 in 10.0 mi ESE 8.1 mph - N/A   Partly Cloudy
3:55 PM 84.2 °F 89.6 °F 71.6 °F 66% 30.06 in 10.0 mi SSE 10.4 mph - N/A   Mostly Cloudy
4:15 PM 84.2 °F 87.3 °F 68.0 °F 58% 30.06 in 10.0 mi SE 9.2 mph - N/A   Partly Cloudy
4:35 PM 84.2 °F 86.6 °F 66.2 °F 55% 30.05 in 10.0 mi SE 9.2 mph - N/A   Clear
4:55 PM 84.2 °F 88.4 °F 69.8 °F 62% 30.04 in 10.0 mi SE 6.9 mph - N/A   Clear
5:15 PM 84.2 °F 89.6 °F 71.6 °F 66% 30.04 in 10.0 mi SSE 9.2 mph - N/A   Clear
5:35 PM 82.4 °F 87.2 °F 71.6 °F 70% 30.04 in 10.0 mi SSE 9.2 mph - N/A   Partly Cloudy
5:55 PM 82.4 °F 87.2 °F 71.6 °F 70% 30.04 in 10.0 mi SSE 8.1 mph - N/A   Mostly Cloudy
6:15 PM 80.6 °F 84.6 °F 71.6 °F 74% 30.03 in 10.0 mi SSE 6.9 mph - N/A   Mostly Cloudy
6:35 PM 80.6 °F 84.6 °F 71.6 °F 74% 30.04 in 10.0 mi SSE 10.4 mph - N/A   Mostly Cloudy
6:55 PM 78.8 °F - 69.8 °F 74% 30.04 in 10.0 mi South 10.4 mph 19.6 mph N/A   Overcast
7:15 PM 77.0 °F - 71.6 °F 83% 30.05 in 10.0 mi South 5.8 mph - 0.01 in   Mostly Cloudy
7:35 PM 77.0 °F - 69.8 °F 78% 30.05 in 10.0 mi South 6.9 mph - 0.01 in   Overcast
7:55 PM 77.0 °F - 69.8 °F 78% 30.06 in 10.0 mi South 10.4 mph 16.1 mph 0.01 in   Overcast
8:15 PM 75.2 °F - 68.0 °F 78% 30.06 in 10.0 mi South 9.2 mph - N/A   Overcast
8:35 PM 73.4 °F - 68.0 °F 83% 30.06 in 10.0 mi South 11.5 mph 16.1 mph N/A   Mostly Cloudy
8:55 PM 73.4 °F - 68.0 °F 83% 30.06 in 10.0 mi South 11.5 mph 17.3 mph 0.01 in   Mostly Cloudy
9:15 PM 73.4 °F - 68.0 °F 83% 30.06 in 10.0 mi South 9.2 mph - N/A   Mostly Cloudy
9:35 PM 73.4 °F - 68.0 °F 83% 30.07 in 10.0 mi SSW 9.2 mph - 0.01 in   Mostly Cloudy
9:55 PM 73.4 °F - 68.0 °F 83% 30.07 in 10.0 mi SSW 10.4 mph - 0.02 in   Overcast
10:15 PM 73.4 °F - 69.8 °F 88% 30.07 in 10.0 mi SSW 11.5 mph - N/A   Scattered Clouds
10:35 PM 73.4 °F - 68.0 °F 83% 30.07 in 10.0 mi South 8.1 mph - N/A   Mostly Cloudy
10:55 PM 73.4 °F - 69.8 °F 88% 30.06 in 10.0 mi SSW 5.8 mph - N/A   Mostly Cloudy
11:15 PM 73.4 °F - 69.8 °F 88% 30.04 in 10.0 mi South 5.8 mph - N/A   Mostly Cloudy
11:35 PM 73.4 °F - 69.8 °F 88% 30.04 in 10.0 mi SSW 4.6 mph - N/A   Overcast
11:55 PM 73.4 °F - 69.8 °F 88% 30.04 in 9.0 mi SSW 4.6 mph - N/A   Mostly Cloudy